Weather History for KLAR - September, 2013

Change the Weather History Date:

Tuesday, September 24, 2013

  Actual Average Record
Temperature  
Mean Temperature 54 °F 50 °F  
Max Temperature 68 °F 65 °F 79 °F (2001)
Min Temperature 40 °F 35 °F 19 °F (1965)
Degree Days  
Heating Degree Days 11 15  
Month to date heating degree days 158 253  
Since 1 July heating degree days 229 425  
Cooling Degree Days 0 0  
Month to date cooling degree days 24 0  
Year to date cooling degree days 162 66  
Growing Degree Days 4 (Base 50)    
Moisture  
Dew Point 32 °F    
Average Humidity 45    
Maximum Humidity 70    
Minimum Humidity 19    
Precipitation  
Precipitation 0.00 in 0.04 in 0.47 in (1970)
Month to date precipitation 3.00 0.91  
Year to date precipitation 9.33 9.06  
Sea Level Pressure  
Sea Level Pressure 29.90 in    
Wind  
Wind Speed 14 mph (SW)    
Max Wind Speed 25 mph    
Max Gust Speed 32 mph    
Visibility 10 miles    
Events      
T = Trace of Precipitation, MM = Missing Value Source: NWS Daily Summary

Daily Weather History Graph

Daily Weather History Graph

Search for Another Location

Airport or City:

Trip Planner

Search our weather history database for the weather conditions in past years. The results will help you decide how hot, cold, wet, or windy it might be!

Date:

Astronomy

Sep. 24, 2013 Rise Set
Actual Time 6:52 AM MDT 6:55 PM MDT
Civil Twilight 6:24 AM MDT 7:23 PM MDT
Nautical Twilight 5:52 AM MDT 7:55 PM MDT
Astronomical Twilight 5:19 AM MDT 8:28 PM MDT
Moon 10:12 PM MDT (9/24) 12:12 PM MDT (9/24)
Length of Visible Light 12h 58m
Length of Day
12h 03m
Waning Gibbous, 72% of the Moon is Illuminated
Sep 24
Waning Gibbous
Sep 26
Last Quarter
Oct 4
New
Oct 11
First Quarter
Oct 18
Full

Hourly Weather History & Observations

Time (MDT) Temp. Windchill Dew Point Humidity Pressure Visibility Wind Dir Wind Speed Gust Speed Precip Events Conditions
12:53 AM 41.0 °F 34.7 °F 32.0 °F 70% 29.99 in 10.0 mi WSW 10.4 mph - N/A   Clear
1:53 AM 44.1 °F 36.8 °F 32.0 °F 63% 29.96 in 10.0 mi SW 16.1 mph - N/A   Clear
2:53 AM 45.0 °F 38.5 °F 32.0 °F 60% 29.96 in 10.0 mi SW 13.8 mph - N/A   Clear
3:53 AM 44.1 °F 37.4 °F 32.0 °F 63% 29.97 in 10.0 mi WSW 13.8 mph - N/A   Clear
4:53 AM 41.0 °F 35.8 °F 32.0 °F 70% 30.00 in 10.0 mi West 8.1 mph - N/A   Clear
5:53 AM 45.0 °F 37.6 °F 30.9 °F 58% 29.99 in 10.0 mi WSW 17.3 mph 24.2 mph N/A   Clear
6:53 AM 45.0 °F 37.9 °F 30.9 °F 58% 30.02 in 10.0 mi WSW 16.1 mph - N/A   Clear
7:53 AM 46.0 °F - 33.1 °F 61% 30.06 in 10.0 mi Calm Calm - N/A   Clear
8:53 AM 51.1 °F - 34.0 °F 52% 30.04 in 10.0 mi Variable 5.8 mph - N/A   Clear
9:53 AM 55.9 °F - 33.1 °F 42% 30.01 in 10.0 mi SW 20.7 mph - N/A   Clear
10:53 AM 57.9 °F - 30.9 °F 36% 29.96 in 10.0 mi WSW 21.9 mph 29.9 mph N/A   Clear
11:53 AM 61.0 °F - 32.0 °F 34% 29.95 in 10.0 mi SW 18.4 mph 27.6 mph N/A   Clear
12:53 PM 64.0 °F - 30.0 °F 28% 29.92 in 10.0 mi WSW 15.0 mph - N/A   Clear
1:53 PM 66.0 °F - 27.0 °F 23% 29.87 in 10.0 mi WSW 12.7 mph 18.4 mph N/A   Clear
2:53 PM 66.9 °F - 26.1 °F 21% 29.83 in 10.0 mi SW 18.4 mph - N/A   Clear
3:53 PM 68.0 °F - 26.1 °F 21% 29.80 in 10.0 mi SW 12.7 mph 20.7 mph N/A   Clear
4:53 PM 66.0 °F - 23.0 °F 20% 29.79 in 10.0 mi SW 17.3 mph - N/A   Clear
5:53 PM 64.0 °F - 28.9 °F 27% 29.77 in 10.0 mi SSW 19.6 mph - N/A   Clear
6:53 PM 55.9 °F - 36.0 °F 47% 29.80 in 10.0 mi South 12.7 mph - N/A   Clear
7:53 PM 53.1 °F - 35.1 °F 50% 29.80 in 10.0 mi SSE 16.1 mph - N/A   Clear
8:53 PM 52.0 °F - 36.0 °F 54% 29.78 in 10.0 mi South 15.0 mph - N/A   Clear
9:53 PM 50.0 °F - 36.0 °F 59% 29.77 in 10.0 mi SSE 13.8 mph - N/A   Clear
10:53 PM 45.0 °F 38.5 °F 36.0 °F 71% 29.75 in 10.0 mi SSE 13.8 mph - N/A   Clear
11:53 PM 44.1 °F 39.0 °F 32.0 °F 63% 29.72 in 10.0 mi South 9.2 mph - N/A   Clear